Probability
0 26 100 100 100 100 100 100 100 100 100 100 100 100 100 100 100 100 100 100 100 100 100 100 100 100 100 100 100 100 100 100 100 100 100 100 100 100 100 100 100 100 100
3 71 100 100 100 100 100 100 100 100 100 100 100 100 100 100 100 100 100 100 100 100 100 100 100 100 100 100 100 100 100 100 100 100 100 100 100 100 100 100 100 100 97
29 90 100 100 100 100 100 100 100 100 100 100 100 97 100 100 100 100 100 100 100 100 100 100 100 100 100 100 100 100 100 100 100 97 94 90 97 100 100 100 100 100 100
65 97 100 100 100 100 100 100 100 100 100 100 97 97 94 100 100 100 100 100 94 94 100 100 100 100 100 100 100 100 100 100 97 90 61 81 90 97 97 100 100 100 100
74 90 100 100 100 100 100 100 100 100 100 97 94 90 100 100 100 100 100 97 94 94 94 97 100 100 100 100 97 97 97 97 90 74 58 65 84 97 100 97 100 97 97
81 90 100 100 100 100 100 100 100 100 94 90 94 94 90 90 94 97 90 87 77 77 84 90 100 100 100 97 97 97 97 94 77 55 52 61 74 97 94 97 94 94 94
77 94 100 100 100 100 100 100 100 97 97 94 94 97 90 87 90 87 77 74 65 61 52 81 90 97 100 100 100 100 97 94 55 42 48 55 74 97 94 94 97 94 87
77 100 100 100 100 100 100 100 100 97 97 94 94 100 94 94 94 81 71 65 52 35 45 74 90 97 100 100 100 97 94 90 68 55 55 55 84 94 94 90 94 94 94
84 100 100 100 100 100 100 100 100 97 97 97 97 97 94 94 94 81 58 35 29 19 23 35 58 77 81 87 77 81 90 87 29 45 65 58 90 97 97 90 94 94 94
74 90 97 100 100 100 100 100 100 97 97 97 97 97 100 90 94 84 61 42 13 10 6 13 26 39 52 61 55 52 48 39 6 10 19 65 94 97 100 97 90 90 90
68 65 81 90 94 97 97 100 100 100 100 100 97 97 100 94 94 87 71 42 19 0 0 0 3 6 16 13 16 23 3 0 0 0 3 77 94 90 90 94 87 90 90
68 61 81 84 84 94 97 97 100 100 100 100 97 97 87 42 19 71 61 52 23 6 0 0 0 0 0 0 0 0 0 0 0 0 0 84 81 68 71 81 71 87 87
61 68 74 77 81 87 90 65 94 94 94 94 90 81 48 3 3 32 0 13 19 13 0 0 0 0 0 0 0 0 0 0 0 0 0 68 58 45 55 58 65 61 74
26 48 48 74 58 61 58 42 61 81 84 87 65 45 10 0 0 0 0 0 0 0 0 0 0 0 0 0 0 0 0 0 0 0 0 39 48 29 13 19 29 35 55
3 13 26 39 45 45 32 16 42 58 65 68 48 32 13 0 0 0 0 0 0 0 0 0 0 0 0 0 0 0 0 0 0 0 0 0 55 29 6 10 13 23 29
0 0 10 16 23 16 26 23 19 45 48 42 45 29 16 6 0 0 0 0 0 0 0 0 0 0 0 0 0 0 0 0 0 0 0 0 10 13 19 13 26 32 19
0 0 0 13 13 13 19 13 16 16 23 29 39 19 16 10 0 0 0 0 0 0 0 0 0 0 0 0 0 0 0 0 0 0 0 0 0 0 6 19 45 42 32
0 0 0 3 13 6 10 10 23 13 10 10 13 13 13 10 6 0 0 0 0 0 0 0 0 0 0 0 0 0 0 0 0 0 0 0 0 0 0 13 55 87 61
0 0 0 0 3 6 13 13 19 16 13 10 3 3 3 10 10 3 0 0 0 0 0 0 0 0 0 0 0 0 0 0 0 0 0 0 0 0 0 0 16 39 58
0 0 0 0 0 3 6 6 6 13 16 16 10 3 3 3 3 3 0 0 0 0 0 0 0 0 0 0 0 0 0 0 0 0 0 0 0 0 0 0 0 3 19
0 0 0 0 0 0 0 0 3 6 13 10 6 6 3 0 0 0 0 0 0 0 0 0 0 0 0 0 0 0 0 0 0 0 0 0 0 0 0 0 0 0 0
0 0 0 0 0 0 0 0 0 6 0 6 6 3 0 0 0 0 0 0 0 0 0 0 0 0 0 0 0 0 0 0 0 0 0 0 0 0 0 0 0 0 0
0 0 0 0 0 0 0 0 0 0 0 3 6 3 3 0 0 0 0 0 0 0 0 0 0 0 0 0 0 0 0 0 0 0 0 0 0 0 0 0 0 0 0
0 0 0 0 0 0 0 0 0 0 0 6 3 0 0 0 0 0 0 0 0 0 0 0 0 0 0 0 0 0 0 0 0 0 0 0 0 0 0 0 0 0 0
0 0 0 0 0 0 0 0 0 0 0 0 0 0 0 0 0 0 0 0 0 0 0 0 0 0 0 0 0 0 0 0 0 0 0 0 0 0 0 0 0 0 0
0 0 0 0 0 0 0 0 0 0 0 0 0 0 0 0 0 0 0 0 0 0 0 0 0 0 0 0 0 0 0 0 0 0 0 0 0 0 0 0 0 0 0
Height
5909 5909 5909 5909 5908 5907 5906 5905 5904 5904 5903 5903 5903 5903 5903 5903 5902 5903 5902 5902 5902 5902 5903 5903 5904 5905 5906 5907 5908 5910 5911 5913 5914 5916 5917 5919 5920 5921 5922 5923 5923 5924 5924
5910 5910 5911 5911 5910 5910 5909 5908 5907 5906 5906 5905 5905 5905 5904 5904 5904 5904 5904 5903 5903 5903 5903 5903 5904 5905 5906 5907 5908 5909 5910 5912 5913 5914 5915 5917 5918 5920 5921 5921 5922 5923 5923
5911 5911 5912 5912 5912 5911 5911 5910 5909 5908 5908 5908 5907 5907 5906 5906 5905 5905 5905 5905 5904 5904 5904 5904 5904 5905 5905 5906 5907 5908 5909 5910 5911 5912 5913 5915 5916 5918 5919 5920 5920 5921 5922
5912 5912 5913 5913 5913 5913 5912 5912 5911 5910 5910 5910 5909 5909 5908 5908 5907 5907 5906 5906 5905 5905 5905 5905 5905 5905 5905 5906 5906 5907 5908 5909 5910 5911 5912 5913 5915 5916 5917 5918 5919 5920 5920
5913 5913 5914 5914 5914 5914 5913 5913 5913 5912 5912 5912 5911 5911 5910 5909 5909 5908 5908 5907 5906 5906 5905 5905 5905 5905 5905 5905 5906 5906 5907 5909 5910 5911 5911 5912 5913 5914 5916 5917 5918 5918 5919
5913 5914 5914 5914 5914 5914 5914 5914 5914 5913 5913 5913 5913 5912 5912 5911 5911 5910 5909 5909 5908 5907 5906 5906 5905 5905 5905 5905 5905 5906 5907 5908 5909 5910 5911 5911 5912 5913 5914 5916 5917 5917 5918
5914 5914 5914 5914 5914 5914 5914 5914 5914 5914 5914 5914 5914 5914 5913 5913 5912 5912 5911 5910 5910 5909 5908 5907 5907 5906 5906 5905 5906 5906 5907 5908 5909 5910 5910 5911 5912 5913 5914 5915 5916 5917 5917
5913 5914 5914 5914 5914 5914 5914 5914 5914 5914 5914 5914 5914 5914 5914 5914 5914 5913 5913 5912 5911 5910 5909 5909 5908 5907 5907 5906 5906 5906 5907 5908 5909 5910 5911 5911 5912 5912 5913 5915 5916 5917 5917
5912 5913 5913 5913 5913 5913 5914 5914 5914 5914 5914 5914 5914 5914 5914 5914 5914 5914 5913 5913 5912 5911 5911 5910 5909 5908 5908 5908 5907 5907 5908 5908 5909 5910 5911 5912 5912 5913 5914 5915 5916 5917 5917
5911 5911 5911 5912 5912 5912 5912 5912 5913 5913 5913 5913 5913 5913 5913 5913 5913 5913 5913 5913 5912 5912 5911 5911 5910 5910 5909 5908 5908 5908 5909 5909 5909 5910 5911 5912 5913 5913 5914 5915 5916 5916 5917
5910 5910 5910 5910 5910 5910 5910 5911 5911 5911 5911 5911 5911 5911 5912 5912 5912 5912 5912 5912 5912 5912 5911 5911 5911 5910 5910 5909 5909 5909 5909 5909 5910 5911 5911 5912 5913 5914 5914 5915 5915 5916 5916
5908 5908 5907 5907 5907 5907 5908 5908 5908 5909 5909 5909 5909 5909 5909 5910 5910 5910 5910 5911 5911 5911 5911 5910 5910 5910 5910 5909 5909 5909 5909 5910 5910 5911 5911 5912 5913 5913 5914 5914 5915 5915 5916
5906 5905 5905 5904 5904 5904 5905 5905 5905 5906 5906 5906 5906 5906 5906 5907 5907 5907 5908 5908 5909 5909 5909 5909 5909 5909 5909 5909 5909 5909 5909 5910 5910 5910 5911 5911 5912 5913 5913 5914 5914 5915 5915
5902 5901 5901 5901 5901 5901 5901 5902 5902 5902 5902 5902 5902 5902 5903 5903 5904 5904 5904 5905 5905 5906 5906 5907 5907 5907 5908 5908 5908 5909 5909 5909 5909 5910 5910 5911 5911 5912 5912 5913 5913 5914 5914
5897 5897 5896 5897 5897 5898 5898 5898 5898 5898 5898 5898 5898 5899 5899 5900 5900 5900 5901 5901 5902 5902 5903 5904 5904 5905 5905 5906 5906 5907 5908 5908 5908 5908 5909 5909 5910 5910 5911 5911 5911 5912 5912
5892 5891 5891 5891 5891 5892 5892 5893 5893 5894 5894 5894 5894 5894 5895 5895 5896 5897 5897 5897 5898 5898 5899 5900 5901 5901 5902 5902 5903 5904 5905 5905 5906 5906 5907 5907 5907 5908 5908 5909 5909 5909 5910
5886 5885 5885 5884 5885 5885 5885 5886 5887 5887 5888 5889 5889 5890 5890 5891 5891 5892 5893 5893 5894 5894 5894 5895 5896 5897 5898 5899 5899 5900 5901 5902 5903 5903 5904 5904 5905 5905 5906 5906 5906 5907 5907
5879 5879 5878 5878 5878 5878 5878 5878 5879 5880 5881 5882 5883 5884 5884 5885 5886 5887 5887 5888 5889 5889 5889 5890 5891 5892 5893 5894 5895 5896 5896 5897 5898 5899 5900 5901 5901 5902 5902 5903 5903 5904 5904
5870 5870 5870 5870 5871 5871 5871 5871 5872 5873 5874 5875 5876 5878 5878 5879 5880 5880 5881 5882 5883 5883 5884 5885 5886 5887 5888 5889 5890 5890 5891 5892 5893 5894 5895 5896 5897 5898 5898 5899 5899 5900 5900
5858 5859 5860 5861 5862 5863 5864 5865 5865 5866 5868 5868 5869 5870 5872 5872 5873 5873 5874 5875 5876 5877 5878 5879 5880 5881 5882 5883 5884 5885 5885 5886 5887 5889 5890 5891 5892 5893 5894 5894 5895 5895 5896
5846 5847 5848 5850 5852 5854 5855 5857 5858 5859 5861 5862 5862 5863 5864 5865 5866 5867 5867 5868 5868 5869 5870 5872 5873 5874 5876 5877 5878 5879 5880 5881 5882 5882 5884 5885 5886 5887 5888 5889 5890 5890 5891
5833 5834 5835 5838 5840 5843 5845 5847 5849 5851 5853 5854 5856 5857 5857 5858 5859 5859 5860 5860 5861 5861 5863 5864 5866 5867 5869 5870 5872 5873 5874 5876 5875 5876 5877 5878 5880 5881 5882 5883 5884 5885 5885
5820 5821 5823 5825 5828 5831 5834 5837 5840 5842 5844 5846 5848 5849 5850 5850 5851 5852 5853 5853 5854 5854 5855 5856 5858 5860 5861 5863 5865 5866 5867 5868 5869 5870 5871 5872 5873 5874 5875 5876 5877 5878 5879
5808 5809 5811 5813 5816 5819 5822 5826 5829 5832 5836 5838 5839 5840 5842 5843 5844 5845 5846 5846 5847 5847 5848 5849 5850 5852 5854 5855 5857 5859 5860 5861 5862 5864 5864 5865 5866 5867 5868 5870 5871 5872 5873
5797 5798 5800 5802 5805 5808 5811 5815 5818 5822 5825 5828 5830 5831 5833 5834 5836 5838 5839 5840 5840 5841 5842 5843 5843 5845 5846 5848 5849 5850 5852 5853 5854 5856 5857 5859 5860 5861 5862 5863 5864 5865 5866
5788 5788 5790 5792 5794 5797 5801 5804 5808 5812 5815 5818 5820 5822 5824 5826 5828 5830 5832 5833 5834 5835 5835 5835 5836 5837 5838 5839 5841 5842 5844 5845 5847 5848 5850 5851 5853 5854 5855 5856 5857 5858 5859
Wind_Speed
11 11 12 12 13 14 16 17 18 18 18 18 17 15 14 12 10 9 7 5 4 3 2 1 2 3 5 8 10 13 14 15 14 14 14 14 12 10 9 8 8 8 7
9 9 9 10 11 12 14 15 17 17 18 18 17 16 15 14 12 10 9 7 5 4 3 2 1 2 3 6 9 11 12 14 14 15 15 14 14 13 11 11 10 10 10
8 7 7 8 8 10 11 13 15 16 16 17 17 16 16 15 14 12 11 9 7 5 4 3 1 0 2 4 7 9 10 11 13 14 14 14 14 14 12 12 12 11 11
6 6 5 5 6 7 9 10 12 13 14 15 15 16 16 15 15 13 12 11 9 8 6 4 3 1 1 3 5 7 8 8 9 11 12 13 14 14 13 12 11 11 10
5 4 4 3 4 5 6 7 9 10 11 12 13 14 14 15 15 14 13 13 12 10 8 6 4 3 1 1 3 5 5 6 7 8 9 10 12 12 11 11 10 9 8
3 3 3 2 2 2 3 4 6 7 8 9 10 11 12 13 13 14 14 13 13 12 11 8 6 4 2 1 2 3 4 4 4 4 5 6 8 8 9 9 8 6 6
2 2 2 2 2 1 1 2 3 4 5 6 7 8 9 10 11 12 12 13 13 13 12 10 8 6 4 2 1 1 2 2 2 2 3 3 3 5 6 6 5 4 4
2 3 2 2 2 2 2 1 1 2 3 4 5 6 7 7 8 9 10 11 12 12 12 11 10 8 6 4 3 2 2 2 2 2 1 1 1 2 3 4 4 3 2
3 4 4 4 4 4 4 3 3 3 3 3 4 5 5 6 7 7 7 8 10 10 11 11 11 9 7 6 4 4 3 3 2 2 1 1 1 2 2 3 2 1 1
3 5 6 6 6 6 5 5 5 4 4 5 5 5 6 6 6 6 6 6 7 8 9 9 10 10 8 6 5 4 4 3 2 2 2 2 1 1 1 1 1 0 1
5 5 6 7 8 8 8 8 7 7 7 7 7 7 7 7 7 6 6 6 6 6 7 7 7 8 8 7 6 5 4 3 2 2 2 1 1 1 1 1 0 0 1
8 7 8 8 9 10 10 10 10 10 9 9 10 10 10 9 9 9 8 8 7 6 6 6 6 6 6 6 6 5 5 3 2 1 1 1 1 1 1 0 1 1 1
12 11 10 10 10 11 12 12 12 12 12 12 12 12 12 12 12 12 12 11 10 9 8 7 6 6 5 5 5 5 4 3 2 1 0 1 1 2 2 2 2 2 2
17 16 15 14 13 13 13 14 14 14 14 14 14 14 14 14 15 15 14 14 13 13 12 10 9 8 7 7 6 5 4 3 3 2 2 2 3 3 3 3 3 4 4
20 20 19 18 18 17 16 16 16 16 16 16 16 16 16 16 16 17 17 17 16 16 15 14 12 11 10 10 9 8 7 6 5 5 4 5 5 5 5 5 5 5 5
23 22 22 22 22 21 20 20 19 19 19 18 18 17 17 18 18 18 18 18 18 18 17 17 15 14 14 13 13 12 11 10 8 8 7 7 7 7 7 7 6 6 6
27 27 26 25 24 23 24 23 22 23 22 21 20 20 20 20 20 20 20 20 20 20 19 18 17 17 16 16 16 15 14 13 13 12 11 10 9 9 10 9 9 9 8
33 33 31 29 29 27 26 26 26 26 25 24 24 23 22 22 22 23 23 23 23 22 22 21 19 18 18 19 18 18 17 17 16 15 14 13 13 12 12 12 12 11 11
39 38 37 35 33 33 31 30 29 28 28 26 26 26 25 25 25 25 26 26 25 25 24 23 22 21 21 21 21 20 20 19 19 19 18 17 16 16 15 15 14 14 13
43 43 42 41 40 38 36 34 33 32 30 29 28 27 27 27 28 28 29 29 29 28 27 26 26 24 23 23 23 22 21 22 22 23 22 21 19 19 18 18 17 16 15
46 46 46 46 44 43 40 39 37 35 34 33 31 30 30 30 30 30 32 31 32 31 31 30 29 28 26 25 24 24 24 24 25 25 25 24 22 22 21 20 19 19 18
48 47 47 48 48 47 45 42 41 39 38 36 35 34 33 32 31 30 31 31 31 32 32 32 31 30 29 28 27 26 25 25 25 26 26 26 25 24 23 22 21 21 20
47 47 47 47 47 48 46 45 44 42 40 39 38 37 37 36 34 33 32 31 31 31 32 33 32 31 31 30 29 28 27 26 25 25 26 27 27 26 25 24 23 23 22
44 44 43 44 44 45 44 44 44 43 42 42 41 40 40 39 36 35 34 32 32 31 30 30 32 31 32 32 31 30 29 28 27 25 26 27 27 27 26 26 25 25 24
38 39 40 40 41 42 42 43 43 43 42 42 42 42 42 41 39 37 35 33 29 27 27 28 31 32 31 31 31 30 30 29 28 28 27 27 27 27 27 27 28 27 27
29 30 32 34 35 37 38 39 40 41 41 41 42 42 41 40 38 37 35 33 30 28 27 26 26 28 30 30 30 30 31 30 30 30 29 28 28 29 29 29 30 30 29
Wind_Direction
88 85 81 81 80 80 79 78 79 79 78 77 75 73 73 72 73 75 76 79 81 79 81 110 175 201 217 220 230 231 228 232 235 238 237 237 240 243 250 259 264 278 289
91 89 83 81 81 79 79 78 78 77 76 74 71 69 67 66 66 68 69 70 72 72 68 74 118 199 217 225 232 236 236 238 240 240 240 239 242 245 252 260 265 273 282
95 92 87 82 80 79 79 78 76 75 72 69 67 65 63 62 61 60 61 61 60 58 55 56 63 191 227 235 238 239 241 244 244 243 242 240 241 244 252 259 263 268 276
99 99 96 88 82 79 78 76 74 72 69 65 62 60 58 57 55 54 54 53 52 50 46 44 47 57 229 239 238 241 245 249 245 246 246 245 244 245 251 257 260 265 272
102 106 110 104 90 80 76 73 70 67 64 62 59 57 54 52 51 49 48 48 47 46 43 39 39 46 31 263 241 236 239 245 253 257 256 250 248 246 247 249 256 263 269
112 113 124 128 118 92 76 68 62 59 56 55 54 52 50 48 46 45 45 44 44 43 43 40 38 36 25 332 240 229 229 234 253 252 255 255 246 241 241 243 251 257 267
145 146 152 168 179 176 98 58 47 44 44 44 44 43 41 39 40 40 41 41 42 42 42 42 41 39 33 37 108 182 189 210 222 230 251 264 236 231 236 236 235 252 267
206 207 204 204 215 227 241 262 322 352 7 16 20 22 23 25 29 31 34 37 39 41 42 43 43 44 44 51 73 117 146 158 173 176 187 222 206 210 209 212 224 247 267
231 228 227 223 226 235 244 252 265 286 306 323 337 348 356 3 10 17 21 25 30 34 38 40 42 44 48 53 66 87 108 127 142 155 163 147 133 150 168 184 207 248 316
251 241 236 232 232 236 241 245 252 263 275 286 297 310 323 333 344 353 0 6 13 19 26 32 37 40 44 47 52 65 86 110 133 153 156 151 147 141 153 167 171 134 11
269 252 245 240 238 239 242 244 247 253 261 268 277 285 293 301 309 320 329 335 342 352 2 13 24 28 32 35 41 53 66 88 119 145 163 170 179 169 162 180 154 344 343
271 262 254 247 244 242 243 244 245 248 252 259 266 272 277 282 287 293 299 305 310 316 323 336 353 5 11 16 23 37 49 59 87 129 171 200 228 241 236 250 280 296 310
269 264 260 256 252 249 247 245 245 246 248 253 259 265 269 273 277 281 284 287 290 293 295 298 308 320 331 340 349 4 18 23 27 16 286 267 281 291 290 289 288 291 294
271 266 261 257 254 252 251 250 249 248 249 251 256 260 264 268 271 275 277 279 281 283 283 282 285 290 296 304 310 318 330 335 330 319 304 288 288 293 295 292 292 291 296
268 264 261 256 253 250 248 247 247 249 250 251 254 257 261 265 268 271 274 276 277 278 278 276 276 278 279 282 286 290 294 298 297 295 290 287 288 291 293 291 291 291 290
257 256 254 252 250 248 245 245 245 245 247 248 251 255 259 262 266 269 272 273 275 275 274 274 273 274 275 276 276 275 277 279 283 287 288 289 290 291 291 290 288 288 289
251 249 247 246 246 245 243 243 244 245 245 246 249 253 257 260 263 266 269 270 272 273 273 273 272 272 273 274 273 270 269 268 269 275 279 282 284 284 284 285 285 284 284
252 249 247 245 242 242 242 241 241 245 246 246 249 251 254 258 261 265 267 268 269 270 271 271 271 270 270 271 271 270 268 267 266 268 270 273 275 277 277 279 281 282 284
256 253 250 247 245 242 242 243 242 244 245 247 250 251 254 257 260 262 265 267 267 266 266 268 269 269 268 268 269 269 269 269 267 266 265 266 268 270 272 274 277 280 283
258 256 253 251 249 246 246 246 247 247 248 250 254 256 257 260 261 263 265 266 265 264 263 264 265 267 268 268 266 266 268 268 267 264 263 262 262 264 267 270 273 276 280
260 258 255 254 252 249 249 248 249 250 250 251 254 258 259 260 261 264 265 266 264 261 261 261 261 263 265 266 266 265 265 266 266 264 262 260 259 261 262 265 269 272 275
262 259 257 256 253 251 250 250 250 251 253 254 254 257 259 262 263 265 268 268 266 262 259 257 257 259 262 264 264 263 263 263 264 262 260 260 259 259 260 262 265 268 271
265 262 260 259 256 253 252 251 252 253 255 256 256 256 257 261 263 265 267 269 268 267 260 256 254 255 258 260 261 262 263 262 262 260 259 259 260 260 260 260 262 265 268
267 265 264 263 259 256 253 252 251 252 253 254 256 258 259 260 262 264 267 270 271 268 263 257 252 251 252 254 257 258 259 260 259 258 259 260 260 260 259 259 261 264 266
269 266 264 263 262 259 256 255 254 254 253 253 254 256 258 259 260 263 265 268 272 274 269 262 256 252 250 251 251 252 253 256 258 259 259 259 259 258 258 259 261 263 265
271 266 262 261 259 257 256 255 254 254 254 254 253 255 257 259 261 262 263 266 271 273 274 269 264 260 254 250 249 248 249 251 254 257 258 257 257 257 257 258 260 262 263